User: anonymous   Login
Location: M.A.R.S.Observatory
(35.4031°N, 81.5481°W)
Time: 08:07:37
(UTC-05:00)
Language:

SL-8 R/B - Orbit

View from above orbital plane
View from above orbital plane
View from above satellite
View from above satellite

Ground track
Ground track

The orbit data is extracted from the following two-line orbital elements,

1 33066U 08031G   14331.03406113  .00000729  00000-0  15609-3 0  9510
2 33066 048.4419 153.9164 0007674 137.5893 005.7827 14.68983851345531
Epoch (UTC): 27 November 2014 00:49:02
Eccentricity: 0.0007674
inclination: 48.4419°
perigee height: 659 km
apogee height: 670 km
right ascension of ascending node: 153.9164°
argument of perigee: 137.5893°
revolutions per day: 14.68983851
mean anomaly at epoch: 5.7827°
orbit number at epoch: 34553

The dashed part of the orbit path shows where the satellite is in the earth's shadow,  

DLR